CW0343 Weather Reports


Display with metric or nautical units.
time (UTC)temp
F
wind
direction
speed
MPH
gust
MPH
rain 1hr
in
rain 24hr
in
rain mn
in
humidity
%
barometer
mb
20221205204805 65 39 0.0 0.0 0.00 0.00 0.00 90 1013.4
20221205204305 65 39 0.0 1.0 0.00 0.00 0.00 90 1013.4
20221205203805 65 39 0.0 0.0 0.00 0.00 0.00 90 1013.3
20221205203305 65 39 0.0 1.0 0.00 0.00 0.00 90 1013.3
20221205202804 64 39 0.0 0.0 0.00 0.00 0.00 90 1013.3
20221205202306 64 39 0.0 0.0 0.00 0.00 0.00 90 1013.2
20221205201804 64 39 0.0 0.0 0.00 0.00 0.00 90 1013.2
20221205201304 64 39 0.0 0.0 0.00 0.00 0.00 90 1013.1
20221205200805 64 39 0.0 0.0 0.00 0.00 0.00 89 1013.1
20221205195805 64 39 0.0 0.0 0.00 0.00 0.00 89 1013.1
20221205195305 64 39 0.0 0.0 0.00 0.00 0.00 90 1013.1
20221205194809 64 39 0.0 0.0 0.00 0.00 0.00 90 1013.0
20221205194305 64 39 0.0 0.0 0.00 0.00 0.00 90 1013.0
20221205193805 64 39 0.0 0.0 0.00 0.00 0.00 90 1013.0
20221205193304 64 39 0.0 0.0 0.00 0.00 0.00 90 1013.0
20221205192805 64 39 0.0 0.0 0.00 0.00 0.00 90 1012.9
20221205192306 64 39 0.0 0.0 0.00 0.00 0.00 90 1012.7
20221205191804 64 39 0.0 0.0 0.00 0.00 0.00 90 1012.6
20221205190806 64 39 0.0 0.0 0.00 0.00 0.00 90 1012.7
20221205190305 64 39 0.0 0.0 0.00 0.00 0.00 90 1012.6
20221205185805 64 39 0.0 0.0 0.00 0.00 0.00 90 1012.6
20221205184805 64 39 0.0 0.0 0.00 0.00 0.00 91 1012.5
20221205184305 64 39 0.0 0.0 0.00 0.00 0.00 91 1012.4
20221205183805 64 39 0.0 0.0 0.00 0.00 0.00 91 1012.5
20221205183305 64 39 0.0 0.0 0.00 0.00 0.00 91 1012.4
20221205182306 64 39 0.0 0.0 0.00 0.00 0.00 91 1012.3
20221205181805 64 39 0.0 0.0 0.00 0.00 0.00 91 1012.3
20221205181306 64 39 0.0 0.0 0.00 0.00 0.00 91 1012.2
20221205180305 64 39 0.0 0.0 0.00 0.00 0.00 91 1012.2
20221205175804 65 39 0.0 0.0 0.00 0.00 0.00 91 1012.1
20221205175305 65 39 0.0 0.0 0.00 0.00 0.00 92 1012.1
20221205174804 65 39 0.0 0.0 0.00 0.00 0.00 92 1012.1
20221205174305 65 39 0.0 0.0 0.00 0.00 0.00 92 1012.1
20221205173304 65 39 0.0 2.0 0.00 0.00 0.00 92 1012.1
20221205172306 65 39 1.0 2.0 0.00 0.00 0.00 92 1012.0
20221205171805 65 39 0.0 3.0 0.00 0.00 0.00 92 1011.9
20221205171306 65 39 1.0 2.0 0.00 0.00 0.00 92 1011.9
20221205170804 65 39 1.0 2.0 0.00 0.00 0.00 92 1012.0
20221205170304 65 39 1.0 2.0 0.00 0.00 0.00 92 1012.0
20221205165805 65 39 1.0 2.0 0.00 0.00 0.00 92 1012.0
20221205165306 65 39 1.0 2.0 0.00 0.00 0.00 92 1012.0
20221205164305 65 39 1.0 2.0 0.00 0.00 0.00 92 1011.9
20221205163805 65 39 1.0 3.0 0.00 0.00 0.00 92 1012.0
20221205163304 65 38 0.0 0.0 0.00 0.00 0.00 92 1012.0
20221205162305 65 38 0.0 0.0 0.00 0.00 0.00 92 1012.1
20221205161305 66 38 0.0 0.0 0.00 0.00 0.00 92 1012.1
20221205160805 66 38 0.0 0.0 0.00 0.00 0.00 92 1012.2
20221205160305 66 38 0.0 0.0 0.00 0.00 0.00 93 1012.4
20221205155805 66 38 0.0 0.0 0.00 0.00 0.00 93 1012.2
20221205155305 66 38 0.0 1.0 0.00 0.00 0.00 93 1012.3
20221205154805 66 38 1.0 2.0 0.00 0.00 0.00 93 1012.5
20221205153805 67 38 1.0 2.0 0.00 0.00 0.00 93 1012.5
20221205153306 67 37 1.0 3.0 0.00 0.00 0.00 93 1012.5
20221205152804 68 37 1.0 3.0 0.00 0.00 0.00 93 1012.6
20221205152306 68 36 1.0 2.0 0.00 0.00 0.00 93 1012.6
20221205151804 67 36 0.0 0.0 0.00 0.00 0.00 93 1012.7
20221205150305 68 36 1.0 2.0 0.00 0.00 0.00 93 1012.8
20221205145805 68 36 1.0 2.0 0.00 0.00 0.00 93 1012.8
20221205145305 68 36 1.0 1.0 0.00 0.00 0.00 93 1013.0
20221205144805 68 36 1.0 2.0 0.00 0.00 0.00 93 1013.1
20221205144305 68 36 1.0 3.0 0.00 0.00 0.00 93 1013.0
20221205143806 68 36 1.0 3.0 0.00 0.00 0.00 93 1013.1
20221205143305 68 36 2.0 3.0 0.00 0.00 0.00 93 1013.1
20221205142806 68 36 1.0 3.0 0.00 0.00 0.00 92 1013.3
20221205142306 68 36 1.0 3.0 0.00 0.00 0.00 92 1013.4
20221205141805 68 36 1.0 3.0 0.00 0.00 0.00 92 1013.4
20221205141305 68 36 1.0 3.0 0.00 0.00 0.00 92 1013.5
20221205140806 68 36 1.0 3.0 0.00 0.00 0.00 92 1013.6
20221205140305 69 36 1.0 2.0 0.00 0.00 0.00 92 1013.8
20221205135306 69 36 1.0 3.0 0.00 0.00 0.00 93 1013.8
20221205134806 69 36 1.0 3.0 0.00 0.00 0.00 93 1013.9
20221205134305 69 36 1.0 2.0 0.00 0.00 0.00 92 1013.9
20221205133804 69 36 1.0 3.0 0.00 0.00 0.00 92 1013.9
20221205133304 69 36 1.0 3.0 0.00 0.00 0.00 92 1014.0
20221205132805 69 36 2.0 3.0 0.00 0.00 0.00 92 1014.1
20221205132305 69 36 2.0 3.0 0.00 0.00 0.00 92 1014.2
20221205131806 69 36 2.0 3.0 0.00 0.00 0.00 92 1014.3
20221205131305 69 38 1.0 3.0 0.00 0.00 0.00 92 1014.3
20221205130805 69 38 2.0 3.0 0.00 0.00 0.00 92 1014.3
20221205125806 69 39 1.0 3.0 0.00 0.00 0.00 92 1014.3
20221205125306 69 39 1.0 3.0 0.00 0.00 0.00 91 1014.3
20221205124805 69 39 1.0 3.0 0.00 0.00 0.00 91 1014.3
20221205124305 70 39 1.0 3.0 0.00 0.00 0.00 91 1014.4
20221205123805 70 39 1.0 3.0 0.00 0.00 0.00 91 1014.4
20221205122806 70 39 1.0 2.0 0.00 0.00 0.00 90 1014.4
20221205122306 70 39 0.0 1.0 0.00 0.00 0.00 91 1014.4
20221205121806 70 39 0.0 3.0 0.00 0.00 0.00 90 1014.3
20221205121305 70 39 1.0 3.0 0.00 0.00 0.00 90 1014.2
20221205120806 70 39 1.0 3.0 0.00 0.00 0.00 90 1014.2
20221205120305 70 39 0.0 3.0 0.00 0.00 0.00 90 1014.2
20221205115805 70 39 0.0 3.0 0.00 0.00 0.00 90 1014.2
20221205115306 70 39 1.0 3.0 0.00 0.00 0.00 90 1014.2
20221205114805 71 39 1.0 3.0 0.00 0.00 0.00 90 1014.1
20221205114306 71 39 1.0 2.0 0.00 0.00 0.00 90 1014.1
20221205113805 71 39 1.0 3.0 0.00 0.00 0.00 90 1014.0
20221205112806 71 39 1.0 3.0 0.00 0.00 0.00 89 1013.9
20221205112305 71 39 2.0 3.0 0.00 0.00 0.00 89 1013.8
20221205111807 71 38 2.0 3.0 0.00 0.00 0.00 89 1013.8
20221205111305 71 37 2.0 6.0 0.00 0.00 0.00 89 1013.8
20221205110805 71 36 2.0 3.0 0.00 0.00 0.00 89 1013.7
20221205110306 71 42 3.0 6.0 0.00 0.00 0.00 89 1013.7
20221205105805 71 42 2.0 5.0 0.00 0.00 0.00 89 1013.7
20221205105306 71 38 3.0 5.0 0.00 0.00 0.00 88 1013.6
20221205104805 71 34 2.0 3.0 0.00 0.00 0.00 88 1013.5
20221205104305 71 39 1.0 3.0 0.00 0.00 0.00 87 1013.5
20221205103805 72 38 2.0 3.0 0.00 0.00 0.00 87 1013.5
20221205103305 72 37 3.0 6.0 0.00 0.00 0.00 87 1013.4
20221205102806 72 44 2.0 5.0 0.00 0.00 0.00 87 1013.4
20221205101805 72 42 2.0 5.0 0.00 0.00 0.00 86 1013.2
20221205100805 72 42 2.0 3.0 0.00 0.00 0.00 86 1013.0
20221205095805 73 42 3.0 5.0 0.00 0.00 0.00 85 1012.9
20221205094806 73 36 2.0 3.0 0.00 0.00 0.00 84 1012.8
20221205094306 73 41 3.0 7.0 0.00 0.00 0.00 84 1012.7
20221205093806 73 32 3.0 6.0 0.00 0.00 0.00 83 1012.6
20221205093306 74 40 1.0 3.0 0.00 0.00 0.00 83 1012.4
20221205092805 74 40 1.0 3.0 0.00 0.00 0.00 83 1012.3
20221205092305 74 40 2.0 5.0 0.00 0.00 0.00 82 1012.2
20221205090805 74 40 3.0 5.0 0.00 0.00 0.00 81 1012.1
20221205090306 75 42 2.0 5.0 0.00 0.00 0.00 81 1012.0
20221205085805 75 40 2.0 5.0 0.00 0.00 0.00 80 1012.0
20221205084305 76 38 3.0 6.0 0.00 0.00 0.00 78 1011.8
20221205083805 76 27 3.0 6.0 0.00 0.00 0.00 78 1011.7
20221205083305 77 33 3.0 8.0 0.00 0.00 0.00 77 1011.7
20221205082804 77 40 3.0 8.0 0.00 0.00 0.00 76 1011.6
20221205082306 77 28 4.0 8.0 0.00 0.00 0.00 76 1011.5
20221205081807 77 40 3.0 7.0 0.00 0.00 0.00 75 1011.5
20221205081305 78 37 5.0 8.0 0.00 0.00 0.00 75 1011.3
20221205080805 78 37 3.0 7.0 0.00 0.00 0.00 74 1011.2
20221205080305 78 49 4.0 8.0 0.00 0.00 0.00 73 1011.3
20221205075805 79 30 4.0 8.0 0.00 0.00 0.00 72 1011.2
20221205075306 79 39 5.0 10.0 0.00 0.00 0.00 72 1011.3
20221205074805 79 38 5.0 8.0 0.00 0.00 0.00 71 1011.2
20221205073805 80 41 3.0 9.0 0.00 0.00 0.00 68 1011.0
20221205073305 81 68 4.0 12.0 0.00 0.00 0.00 66 1011.0
20221205072805 81 33 5.0 10.0 0.00 0.00 0.00 66 1010.9
20221205072306 81 42 4.0 9.0 0.00 0.00 0.00 67 1010.9
20221205071804 81 16 5.0 8.0 0.00 0.00 0.00 67 1010.9
20221205071306 81 34 5.0 10.0 0.00 0.00 0.00 66 1010.8
20221205070305 82 43 6.0 10.0 0.00 0.00 0.00 65 1010.7
20221205065805 82 47 6.0 12.0 0.00 0.00 0.00 66 1010.6
20221205065305 81 57 5.0 10.0 0.00 0.00 0.00 68 1010.6
20221205064806 81 42 6.0 10.0 0.00 0.00 0.00 67 1010.5
20221205064305 82 37 5.0 10.0 0.00 0.00 0.00 65 1010.5
20221205063805 82 43 5.0 12.0 0.00 0.00 0.00 66 1010.5
20221205063306 82 45 5.0 10.0 0.00 0.00 0.00 66 1010.4
20221205062804 82 36 5.0 10.0 0.00 0.00 0.00 65 1010.3
20221205062310 82 45 6.0 10.0 0.00 0.00 0.00 64 1010.3
20221205061805 82 46 6.0 10.0 0.00 0.00 0.00 65 1010.3
20221205061304 82 67 5.0 12.0 0.00 0.00 0.00 65 1010.3
20221205060305 83 39 6.0 12.0 0.00 0.00 0.00 63 1010.5
20221205055806 84 40 5.0 12.0 0.00 0.00 0.00 61 1010.5
20221205055305 83 23 4.0 10.0 0.00 0.00 0.00 62 1010.3
20221205054307 84 46 5.0 10.0 0.00 0.00 0.00 60 1010.5
20221205053805 85 59 5.0 12.0 0.00 0.00 0.00 57 1010.5
20221205052305 87 79 2.0 7.0 0.00 0.00 0.00 42 1010.4
20221205051805 86 67 3.0 6.0 0.00 0.00 0.00 41 1010.4
20221205050806 87 77 2.0 7.0 0.00 0.00 0.00 41 1010.5
20221205050305 87 117 2.0 8.0 0.00 0.00 0.00 40 1010.7
20221205045805 88 71 4.0 8.0 0.00 0.00 0.00 39 1010.6
20221205045305 89 116 4.0 8.0 0.00 0.00 0.00 38 1010.6
20221205044305 89 133 1.0 8.0 0.00 0.00 0.00 40 1010.7
20221205043805 90 84 3.0 9.0 0.00 0.00 0.00 40 1010.8
20221205042308 89 118 5.0 9.0 0.00 0.00 0.00 40 1011.0
20221205041805 89 92 5.0 8.0 0.00 0.00 0.00 39 1011.0
20221205041306 89 47 3.0 12.0 0.00 0.00 0.00 41 1011.0
20221205040305 89 132 5.0 9.0 0.00 0.00 0.00 40 1011.0
20221205035806 87 82 5.0 10.0 0.00 0.00 0.00 41 1011.1
20221205035306 88 101 6.0 14.0 0.00 0.00 0.00 39 1011.2
20221205034806 90 65 4.0 10.0 0.00 0.00 0.00 41 1011.1
20221205034305 90 111 5.0 15.0 0.00 0.00 0.00 39 1011.2
20221205033809 89 88 4.0 10.0 0.00 0.00 0.00 38 1011.1
20221205033305 89 109 5.0 13.0 0.00 0.00 0.00 39 1011.3
20221205032805 89 129 5.0 12.0 0.00 0.00 0.00 38 1011.3
20221205031805 89 117 2.0 16.0 0.00 0.00 0.00 36 1011.4
20221205031304 88 127 6.0 12.0 0.00 0.00 0.00 36 1011.6
20221205030805 89 121 4.0 12.0 0.00 0.00 0.00 36 1011.6
20221205030306 89 122 5.0 10.0 0.00 0.00 0.00 40 1011.6
20221205025804 89 115 2.0 9.0 0.00 0.00 0.00 38 1011.7
20221205025306 88 140 5.0 12.0 0.00 0.00 0.00 39 1011.8
20221205024804 88 118 7.0 14.0 0.00 0.00 0.00 39 1011.9
20221205024305 88 133 3.0 8.0 0.00 0.00 0.00 41 1011.9
20221205023804 88 114 5.0 8.0 0.00 0.00 0.00 43 1012.0
20221205023304 88 95 2.0 7.0 0.00 0.00 0.00 39 1011.9
20221205022306 88 122 3.0 9.0 0.00 0.00 0.00 44 1012.2
20221205021805 89 117 3.0 8.0 0.00 0.00 0.00 46 1012.3
20221205021305 87 107 2.0 8.0 0.00 0.00 0.00 45 1012.3
20221205020806 87 77 1.0 3.0 0.00 0.00 0.00 52 1012.4
20221205015804 87 0 2.0 7.0 0.00 0.00 0.00 49 1012.6
20221205015306 87 91 3.0 6.0 0.00 0.00 0.00 50 1012.8
20221205014807 86 119 4.0 12.0 0.00 0.00 0.00 52 1012.8
20221205014305 87 66 3.0 9.0 0.00 0.00 0.00 52 1012.9
20221205013805 85 76 2.0 9.0 0.00 0.00 0.00 55 1013.0
20221205013306 86 145 2.0 5.0 0.00 0.00 0.00 54 1013.0
20221205012806 85 65 3.0 8.0 0.00 0.00 0.00 56 1013.1
20221205012306 85 65 5.0 8.0 0.00 0.00 0.00 56 1013.2
20221205011805 85 62 3.0 9.0 0.00 0.00 0.00 58 1013.3
20221205011305 84 125 3.0 8.0 0.00 0.00 0.00 58 1013.3
20221205010806 84 352 2.0 6.0 0.00 0.00 0.00 58 1013.5
20221205010305 83 69 3.0 6.0 0.00 0.00 0.00 59 1013.6
20221205005804 83 78 2.0 3.0 0.00 0.00 0.00 59 1013.6
20221205005308 83 101 1.0 3.0 0.00 0.00 0.00 60 1013.7
20221205004805 83 116 5.0 9.0 0.00 0.00 0.00 60 1013.8
20221205004305 82 130 2.0 7.0 0.00 0.00 0.00 56 1013.9
20221205003806 83 45 3.0 6.0 0.00 0.00 0.00 61 1014.0
20221205003304 83 202 1.0 5.0 0.00 0.00 0.00 61 1014.0
20221205002805 83 95 3.0 5.0 0.00 0.00 0.00 62 1014.1
20221205002306 82 114 2.0 8.0 0.00 0.00 0.00 61 1014.1
20221205001805 82 195 3.0 8.0 0.00 0.00 0.00 61 1014.1
20221205001305 82 48 3.0 5.0 0.00 0.00 0.00 64 1014.2
20221205000805 81 134 1.0 6.0 0.00 0.00 0.00 62 1014.2
20221205000305 81 134 3.0 9.0 0.00 0.00 0.00 63 1014.3
20221204235804 81 85 2.0 7.0 0.00 0.00 0.00 66 1014.4
20221204235305 81 52 3.0 10.0 0.00 0.00 0.00 66 1014.4
20221204234809 80 68 2.0 5.0 0.00 0.00 0.00 68 1014.4
20221204234305 80 45 3.0 6.0 0.00 0.00 0.00 68 1014.4
20221204233805 79 65 3.0 6.0 0.00 0.00 0.00 70 1014.4
20221204232805 79 16 2.0 3.0 0.00 0.00 0.00 70 1014.5
20221204232306 79 88 2.0 5.0 0.00 0.00 0.00 70 1014.6
20221204231805 78 344 2.0 5.0 0.00 0.00 0.00 72 1014.6
20221204231305 78 359 3.0 7.0 0.00 0.00 0.00 71 1014.5
20221204230817 78 126 1.0 3.0 0.00 0.00 0.00 71 1014.5
20221204230305 78 40 3.0 6.0 0.00 0.00 0.00 73 1014.6
20221204225805 77 354 2.0 5.0 0.00 0.00 0.00 74 1014.5
20221204225305 78 58 2.0 6.0 0.00 0.00 0.00 75 1014.4
20221204224806 77 71 3.0 3.0 0.00 0.00 0.00 75 1014.5
20221204223805 76 86 1.0 3.0 0.00 0.00 0.00 79 1014.4
20221204223305 75 85 2.0 5.0 0.00 0.00 0.00 81 1014.4
20221204222805 74 65 1.0 3.0 0.00 0.00 0.00 82 1014.4
20221204222306 74 66 2.0 3.0 0.00 0.00 0.00 83 1014.2
20221204221805 73 138 2.0 8.0 0.00 0.00 0.00 83 1014.3
20221204220805 73 125 2.0 3.0 0.00 0.00 0.00 87 1014.3
20221204215805 72 90 0.0 7.0 0.00 0.00 0.00 88 1014.2
20221204214805 71 97 2.0 3.0 0.00 0.00 0.00 90 1014.1
20221204214305 71 134 2.0 7.0 0.00 0.00 0.00 91 1014.1
20221204213805 70 138 3.0 3.0 0.00 0.00 0.00 91 1014.1
20221204213306 70 142 2.0 3.0 0.00 0.00 0.00 92 1014.1
20221204212805 70 130 1.0 5.0 0.00 0.00 0.00 93 1014.1
20221204212306 70 88 1.0 3.0 0.00 0.00 0.00 93 1014.0
20221204211805 69 129 1.0 3.0 0.00 0.00 0.00 93 1014.0
20221204211305 69 126 0.0 3.0 0.00 0.00 0.00 93 1014.1
20221204210806 69 125 1.0 3.0 0.00 0.00 0.00 93 1014.0
20221204210306 68 126 0.0 0.0 0.00 0.00 0.00 93 1013.8
20221204205805 68 126 0.0 2.0 0.00 0.00 0.00 93 1013.8
20221204205306 68 126 1.0 3.0 0.00 0.00 0.00 93 1013.7